1998-067LT

Last updated on Thu May 25 2017 00:15:03 GMT+0000 (Coordinated Universal Time)

1 42712U 98067LT 17143.22335877 .00008170 00000-0 12756-3 0 9999 2 42712 51.6416 162.7129 0002952 145.5767 290.0216 15.54766958 862
UTC large
Height (km)
Speed (km/s)
/
Latitude / Longitude
Inclination (degrees)
Orbital Period (minutes)
Azimuth
Elevation
Range (km)
Doppler Factor

Next 0 passes for location: London (51.5072 / 0.1276)

Sorry there are no passes over London.